Retour au catalogue

STARLINK-37471

ActifCommunicationsSSO
NORAD 68802·PAYLOAD·🇺🇸 United States

Lancé Apr 23, 2026 depuis Vandenberg Space Force Base

Loading…

Prochains Passages (prochaines 24 heures)

TLE

FraisSource: CelesTrak SupGP

Époque: Sep 14, 2026, 23:10 UTC

1 68802C 26089A   26257.96576389  .00089565  00000+0  27828-2 0  2572
2 68802  97.2846 103.7237 0001838  88.5113 342.1128 15.33364487    17

Suivez STARLINK-37471 en temps réel avec AllMySat

Download on the App Store